Hourly Weather Godziszow

Today, 18 May, Tuesday

Time Temperature Precipitation Wind Pressure Humidity
00:00 +9°C° 1.1 mm 2 mps 725 mmHg 97%
01:00 +9°C° 1.1 mm 2 mps 725 mmHg 97%
02:00 +9°C° 0.6 mm 2 mps 725 mmHg 96%
03:00 +9°C° 0.6 mm 2 mps 725 mmHg 96%
04:00 +9°C° 0.6 mm 3 mps 725 mmHg 95%
05:00 +9°C° 0.1 mm 3 mps 726 mmHg 95%
06:00 +9°C° 0.1 mm 3 mps 726 mmHg 94%
07:00 +9°C° 0.1 mm 3 mps 727 mmHg 93%
08:00 +10°C° 0.2 mm 3 mps 727 mmHg 88%
09:00 +11°C° 0.2 mm 4 mps 727 mmHg 84%
10:00 +12°C° 0.2 mm 4 mps 727 mmHg 79%
11:00 +12°C° 0.4 mm 4 mps 727 mmHg 78%
12:00 +13°C° 0.4 mm 5 mps 727 mmHg 77%
13:00 +13°C° 0.4 mm 5 mps 727 mmHg 77%
14:00 +13°C° 0.4 mm 5 mps 727 mmHg 77%
15:00 +13°C° 0.4 mm 4 mps 727 mmHg 77%
16:00 +13°C° 0.4 mm 4 mps 727 mmHg 77%
17:00 +12°C° 0.2 mm 3 mps 728 mmHg 80%
18:00 +12°C° 0.2 mm 2 mps 728 mmHg 83%
19:00 +11°C° 0.2 mm 1 mps 728 mmHg 86%
20:00 +11°C° 0 mm 1 mps 728 mmHg 88%
21:00 +9°C° 0 mm 2 mps 728 mmHg 90%
22:00 +9°C° 0 mm 2 mps 729 mmHg 92%
23:00 +9°C° 0.1 mm 2 mps 729 mmHg 92%

Tomorrow, 19 May, Wednesday

Time Temperature Precipitation Wind Pressure Humidity
00:00 +9°C° 0.1 mm 1 mps 729 mmHg 93%
01:00 +9°C° 0.1 mm 1 mps 729 mmHg 94%
02:00 +9°C° 0.1 mm 1 mps 729 mmHg 94%
03:00 +9°C° 0.1 mm 1 mps 729 mmHg 94%
04:00 +9°C° 0.1 mm 1 mps 729 mmHg 95%
05:00 +10°C° 0 mm 1 mps 729 mmHg 92%
06:00 +10°C° 0 mm 1 mps 730 mmHg 90%
07:00 +11°C° 0 mm 1 mps 730 mmHg 87%
08:00 +11°C° 0.2 mm 1 mps 730 mmHg 85%
09:00 +12°C° 0.2 mm 1 mps 730 mmHg 83%
10:00 +12°C° 0.2 mm 2 mps 730 mmHg 81%
11:00 +12°C° 0.4 mm 2 mps 730 mmHg 80%
12:00 +12°C° 0.4 mm 2 mps 730 mmHg 79%
13:00 +13°C° 0.4 mm 2 mps 730 mmHg 78%
14:00 +13°C° 0.4 mm 2 mps 730 mmHg 79%
15:00 +13°C° 0.4 mm 2 mps 730 mmHg 80%
16:00 +13°C° 0.4 mm 2 mps 730 mmHg 81%
17:00 +12°C° 0.6 mm 2 mps 730 mmHg 85%
18:00 +10°C° 0.6 mm 2 mps 730 mmHg 88%
19:00 +9°C° 0.6 mm 2 mps 730 mmHg 92%
20:00 +9°C° 0.2 mm 2 mps 731 mmHg 93%
21:00 +8°C° 0.2 mm 2 mps 731 mmHg 94%
22:00 +8°C° 0.2 mm 2 mps 731 mmHg 95%
23:00 +7°C° 0 mm 2 mps 731 mmHg 95%

Day after tomorrow, 20 May, Thursday

Time Temperature Precipitation Wind Pressure Humidity
00:00 +7°C° 0 mm 2 mps 731 mmHg 95%
01:00 +7°C° 0 mm 2 mps 731 mmHg 96%
02:00 +7°C° 0.1 mm 2 mps 731 mmHg 96%
03:00 +7°C° 0.1 mm 2 mps 731 mmHg 96%
04:00 +7°C° 0.1 mm 2 mps 731 mmHg 96%
05:00 +7°C° 0.2 mm 2 mps 731 mmHg 96%
06:00 +7°C° 0.2 mm 3 mps 732 mmHg 96%
07:00 +7°C° 0.2 mm 3 mps 732 mmHg 96%
08:00 +8°C° 0.9 mm 3 mps 732 mmHg 93%
09:00 +8°C° 0.9 mm 3 mps 732 mmHg 91%
10:00 +9°C° 0.9 mm 3 mps 733 mmHg 88%
11:00 +10°C° 0.3 mm 3 mps 733 mmHg 82%
12:00 +11°C° 0.3 mm 3 mps 733 mmHg 76%
13:00 +12°C° 0.3 mm 3 mps 733 mmHg 70%
14:00 +12°C° 0.5 mm 3 mps 733 mmHg 74%
15:00 +12°C° 0.5 mm 4 mps 733 mmHg 78%
16:00 +11°C° 0.5 mm 4 mps 733 mmHg 82%
17:00 +11°C° 0.7 mm 4 mps 733 mmHg 85%
18:00 +10°C° 0.7 mm 3 mps 733 mmHg 88%
19:00 +9°C° 0.7 mm 3 mps 734 mmHg 91%
20:00 +8°C° 0.2 mm 2 mps 734 mmHg 92%
21:00 +8°C° 0.2 mm 2 mps 734 mmHg 94%
22:00 +7°C° 0.2 mm 2 mps 735 mmHg 95%
23:00 +6°C° 0.1 mm 2 mps 735 mmHg 95%

21 May, Friday

Time Temperature Precipitation Wind Pressure Humidity
00:00 +7°C° 0.1 mm 1 mps 735 mmHg 96%
01:00 +7°C° 0.1 mm 1 mps 735 mmHg 96%
02:00 +6°C° 0 mm 1 mps 735 mmHg 96%
03:00 +6°C° 0 mm 1 mps 735 mmHg 96%
04:00 +6°C° 0 mm 1 mps 736 mmHg 96%
05:00 +7°C° 0 mm 1 mps 736 mmHg 92%
06:00 +9°C° 0 mm 1 mps 736 mmHg 88%
07:00 +10°C° 0 mm 1 mps 736 mmHg 84%
08:00 +11°C° 0 mm 1 mps 736 mmHg 76%
09:00 +13°C° 0 mm 1 mps 735 mmHg 67%
10:00 +14°C° 0 mm 1 mps 735 mmHg 59%
11:00 +15°C° 0.1 mm 2 mps 735 mmHg 56%
12:00 +16°C° 0.1 mm 2 mps 734 mmHg 54%
13:00 +16°C° 0.1 mm 2 mps 734 mmHg 51%
14:00 +16°C° 0 mm 2 mps 733 mmHg 52%
15:00 +16°C° 0 mm 2 mps 733 mmHg 53%
16:00 +17°C° 0 mm 2 mps 733 mmHg 54%
17:00 +15°C° 0 mm 2 mps 732 mmHg 61%
18:00 +14°C° 0 mm 1 mps 732 mmHg 68%
19:00 +13°C° 0 mm 1 mps 732 mmHg 74%
20:00 +12°C° 0 mm 2 mps 732 mmHg 75%
21:00 +10°C° 0 mm 2 mps 731 mmHg 76%
22:00 +9°C° 0 mm 2 mps 731 mmHg 77%
23:00 +9°C° 0 mm 2 mps 731 mmHg 78%

22 May, Saturday

Time Temperature Precipitation Wind Pressure Humidity
00:00 +8°C° 0 mm 2 mps 731 mmHg 79%
01:00 +8°C° 0 mm 2 mps 730 mmHg 80%
02:00 +8°C° 0 mm 2 mps 730 mmHg 79%
03:00 +7°C° 0 mm 2 mps 729 mmHg 78%
04:00 +7°C° 0 mm 2 mps 729 mmHg 78%
05:00 +9°C° 0 mm 3 mps 729 mmHg 73%
06:00 +11°C° 0 mm 3 mps 729 mmHg 68%
07:00 +13°C° 0 mm 3 mps 729 mmHg 64%
08:00 +14°C° 0 mm 4 mps 729 mmHg 60%
09:00 +16°C° 0 mm 5 mps 729 mmHg 56%
10:00 +17°C° 0 mm 5 mps 729 mmHg 51%
11:00 +17°C° 0 mm 5 mps 729 mmHg 54%
12:00 +18°C° 0 mm 4 mps 729 mmHg 57%
13:00 +17°C° 0 mm 3 mps 729 mmHg 60%
14:00 +16°C° 0.8 mm 3 mps 729 mmHg 69%
15:00 +14°C° 0.8 mm 3 mps 728 mmHg 78%
16:00 +13°C° 0.8 mm 3 mps 728 mmHg 87%
17:00 +12°C° 1.1 mm 2 mps 729 mmHg 90%
18:00 +10°C° 1.1 mm 2 mps 729 mmHg 92%
19:00 +9°C° 1.1 mm 2 mps 729 mmHg 95%
20:00 +9°C° 0.4 mm 2 mps 730 mmHg 95%
21:00 +9°C° 0.4 mm 2 mps 730 mmHg 95%
22:00 +8°C° 0.4 mm 2 mps 730 mmHg 95%
23:00 +8°C° 0 mm 2 mps 730 mmHg 95%

23 May, Sunday

Time Temperature Precipitation Wind Pressure Humidity
00:00 +7°C° 0 mm 2 mps 730 mmHg 95%
01:00 +7°C° 0 mm 2 mps 730 mmHg 94%
02:00 +6°C° 0 mm 2 mps 730 mmHg 94%
03:00 +6°C° 0 mm 2 mps 730 mmHg 94%
04:00 +5°C° 0 mm 2 mps 730 mmHg 94%
05:00 +7°C° 0 mm 2 mps 730 mmHg 89%
06:00 +9°C° 0 mm 2 mps 730 mmHg 84%
07:00 +10°C° 0 mm 2 mps 730 mmHg 80%
08:00 +13°C° 0 mm 2 mps 730 mmHg 71%
09:00 +14°C° 0 mm 2 mps 730 mmHg 62%
10:00 +16°C° 0 mm 2 mps 730 mmHg 53%
11:00 +16°C° 0 mm 2 mps 730 mmHg 53%
12:00 +17°C° 0 mm 2 mps 730 mmHg 52%
13:00 +17°C° 0 mm 2 mps 730 mmHg 52%
14:00 +17°C° 0.3 mm 2 mps 730 mmHg 57%
15:00 +16°C° 0.3 mm 2 mps 730 mmHg 62%
16:00 +16°C° 0.3 mm 2 mps 730 mmHg 67%
17:00 +14°C° 0.5 mm 2 mps 730 mmHg 73%
18:00 +13°C° 0.5 mm 2 mps 731 mmHg 79%
19:00 +12°C° 0.5 mm 2 mps 731 mmHg 86%
20:00 +12°C° 0.1 mm 1 mps 731 mmHg 86%
21:00 +11°C° 0.1 mm 1 mps 732 mmHg 87%
22:00 +11°C° 0.1 mm 1 mps 732 mmHg 88%
23:00 +10°C° 0.1 mm 1 mps 732 mmHg 89%
Show more